Tracking 20092 objects as of 14-Dec-2019
HD Live streaming from Space Station
objects crossing your sky now

FENGYUN 1C DEB

Track FENGYUN 1C DEB now!
10-day predictions


NORAD ID: 30327
Int'l Code: 1999-025AAN
Perigee: 790.3 km
Apogee: 998.7 km
Inclination: 98.4 °
Period: 102.7 minutes
Semi major axis: 7265 km
RCS: 0.0095 m2 (small)
Launch date: May 10, 1999
Source: People's Republic of China (PRC)
Launch site: Taiyaun Space Center, China (TSC)

Note: This is SATELLITE DEBRIS
aabbcc
Your satellite tracking list
Your tracking list is empty




NASA's NSSDC Master Catalog

Two Line Element Set (TLE):
1 30327U 99025AAN 19347.89022172 +.00000368 +00000-0 +24545-3 0  9995
2 30327 098.3936 356.3874 0143430 249.2193 230.7704 14.01850968656390
Source of the keplerian elements: AFSPC